Kaneohe MCBH, HI

10:07 AM HST on October 20, 2017 (GMT -1000)
Kaneohe Bay Marine Corps Air Facility

Weather History for PHNG - February, 2013

Change the Weather History Date:

Saturday, February 2, 2013

  Actual Average Record
Temperature  
Mean Temperature 74 °F -  
Max Temperature 78 °F 75 °F 82 °F (2015)
Min Temperature 69 °F 66 °F 61 °F (1998)
Cooling Degree Days 9    
Growing Degree Days 24 (Base 50)    
Moisture  
Dew Point 60 °F    
Average Humidity 63    
Maximum Humidity 73    
Minimum Humidity 49    
Precipitation  
Precipitation 0.00 in - - ()
Sea Level Pressure  
Sea Level Pressure 30.12 in    
Wind  
Wind Speed 9 mph (East)    
Max Wind Speed 14 mph    
Max Gust Speed 23 mph    
Visibility 10 miles    
Events      
Averages and records for this station are not official NWS values.
T = Trace of Precipitation, MM = Missing Value Source: NWS Daily Summary

Daily Weather History Graph

Daily Weather History Graph

Search for Another Location

Airport or City:

Trip Planner

Search our weather history database for the weather conditions in past years. The results will help you decide how hot, cold, wet, or windy it might be!

Date:

Astronomy

Feb. 02, 2013 Rise Set
Actual Time 7:08 AM HST 6:21 PM HST
Civil Twilight 6:44 AM HST 6:45 PM HST
Nautical Twilight 6:18 AM HST 7:11 PM HST
Astronomical Twilight 5:51 AM HST 7:38 PM HST
Moon No Moon Rise 11:24 AM HST (2/2)
Length of Visible Light 12h 00m
Length of Day
11h 13m
Waning Gibbous, 57% of the Moon is Illuminated
Feb 2
Waning Gibbous
Feb 3
Last Quarter
Feb 9
New
Feb 17
First Quarter
Feb 25
Full

Hourly Weather History & Observations

Time (HST) Temp. Dew Point Humidity Pressure Visibility Wind Dir Wind Speed Gust Speed Precip Events Conditions
12:48 AM 73.4 °F 62.6 °F 69% 30.11 in 10.0 mi East 8.1 mph - N/A   Overcast
12:57 AM 72.0 °F 62.1 °F 71% 30.09 in 10.0 mi East 9.2 mph 16.1 mph N/A   Overcast
1:07 AM 71.6 °F 62.6 °F 73% 30.11 in 10.0 mi East 9.2 mph - N/A   Mostly Cloudy
1:57 AM 71.6 °F 62.1 °F 72% 30.08 in 10.0 mi East 9.2 mph 19.6 mph N/A   Mostly Cloudy
2:57 AM 70.9 °F 61.0 °F 71% 30.07 in 10.0 mi East 9.2 mph 17.3 mph N/A   Overcast
3:57 AM 70.3 °F 61.0 °F 72% 30.07 in 10.0 mi East 6.9 mph - N/A   Overcast
4:57 AM 70.3 °F 61.0 °F 72% 30.08 in 10.0 mi East 9.2 mph 16.1 mph N/A   Scattered Clouds
5:57 AM 70.9 °F 60.1 °F 69% 30.09 in 10.0 mi ENE 10.4 mph 17.3 mph N/A   Mostly Cloudy
6:57 AM 72.1 °F 60.1 °F 66% 30.12 in 10.0 mi East 12.7 mph 21.9 mph N/A   Overcast
7:13 AM 71.6 °F 60.8 °F 69% 30.13 in 10.0 mi ENE 10.4 mph 19.6 mph N/A   Overcast
7:35 AM 71.6 °F 60.8 °F 69% 30.14 in 6.2 mi ENE 13.8 mph 23.0 mph N/A   Overcast
7:57 AM 73.2 °F 61.0 °F 65% 30.14 in 10.0 mi ENE 11.5 mph 20.7 mph N/A   Overcast
8:57 AM 73.2 °F 61.0 °F 65% 30.16 in 10.0 mi East 8.1 mph 19.6 mph N/A   Overcast
9:57 AM 75.2 °F 60.1 °F 59% 30.17 in 10.0 mi East 9.2 mph 18.4 mph N/A   Overcast
10:57 AM 77.0 °F 59.0 °F 54% 30.16 in 10.0 mi ESE 10.4 mph 18.4 mph N/A   Scattered Clouds
11:57 AM 77.0 °F 59.0 °F 54% 30.15 in 10.0 mi East 10.4 mph 19.6 mph N/A   Scattered Clouds
12:57 PM 78.8 °F 57.9 °F 49% 30.13 in 10.0 mi East 10.4 mph 17.3 mph N/A   Scattered Clouds
1:57 PM 78.8 °F 60.1 °F 53% 30.11 in 10.0 mi East 9.2 mph 16.1 mph N/A   Overcast
2:57 PM 78.8 °F 61.0 °F 54% 30.10 in 10.0 mi ENE 10.4 mph 18.4 mph N/A   Scattered Clouds
3:57 PM 77.0 °F 59.0 °F 54% 30.10 in 10.0 mi ENE 10.4 mph - N/A   Scattered Clouds
4:57 PM 75.2 °F 60.1 °F 59% 30.11 in 10.0 mi East 10.4 mph 18.4 mph N/A   Scattered Clouds
5:57 PM 75.2 °F 60.1 °F 59% 30.12 in 10.0 mi ENE 12.7 mph 17.3 mph N/A   Scattered Clouds
6:57 PM 73.4 °F 57.9 °F 58% 30.13 in 10.0 mi ENE 6.9 mph - N/A   Scattered Clouds
7:57 PM 73.4 °F 59.0 °F 61% 30.15 in 10.0 mi Variable 6.9 mph - N/A   Scattered Clouds
8:57 PM 71.6 °F 59.0 °F 64% 30.16 in 10.0 mi East 5.8 mph - N/A   Scattered Clouds
9:57 PM 71.6 °F 57.9 °F 62% 30.16 in 10.0 mi East 4.6 mph - N/A   Scattered Clouds
10:57 PM 71.6 °F 57.9 °F 62% 30.16 in 10.0 mi East 5.8 mph - N/A   Scattered Clouds
11:57 PM 69.8 °F 59.0 °F 68% 30.15 in 10.0 mi East 5.8 mph - N/A   Scattered Clouds